ロニオス彗星

150P/LONEOS (2024)

English version
Home page
Updated on May 13, 2024

---------------------------------------------------------------------

・ プロフィール

・ 写真集

・ 軌道要素

Epoch 2024 Mar. 31.0 TT = JDT 2460400.5
T 2024 Mar. 12.46185 TT                                 Rudenko
q   1.7455858            (2000.0)            P               Q
n   0.12946204     Peri.  246.11287     -0.88084401     -0.35080505
a   3.8699714      Node   272.05902     +0.45839732     -0.79977258
e   0.5489409      Incl.   18.54736     -0.11826122     -0.48713411
P   7.61
>From 1145 observations 1978 Mar. 6-2024 Mar. 17, mean residual 0".4.

・ 星図

・ 光度変化

        H = 14.5  G = 0.15

---------------------------------------------------------------------

軌道要素はM.P.E.C. 2024-F34に掲載されたものです。
星図はステラナビゲータ Ver.10 (アストロアーツ) で作成したものです。
光度グラフはComet for Windowsで作成したものです。

---------------------------------------------------------------------

Copyright(C) Seiichi Yoshida (comet@aerith.net). All rights reserved.